Zurück zum Katalog

STARLINK-34174

AktivKommunikationVLEO
NORAD 64097·PAYLOAD·🇺🇸 United States

Gestartet May 23, 2025 von Vandenberg Space Force Base

Loading…

Nächste Überflüge (nächste 24 Stunden)

TLE

AktuellSource: CelesTrak SupGP

Epoche: Sep 15, 2026, 02:18 UTC

1 64097C 25110B   26258.09631944 -.00051731  00000+0 -15287-2 0  2585
2 64097  53.1576 223.0865 0000753  96.1162   9.8828 15.34409994    15

Verfolge STARLINK-34174 in Echtzeit mit AllMySat

Download on the App Store